Location: Buttermere
(51.3333°N, 1.5167°W)
Time: 01:58:05
(UTC+00:00)

Cosmos 494 Rocket - Pass Details

Date: 18 September 2020
Orbit: 741 x 771 km, 74.1° (Epoch: 30 October)

Event Time Altitude Azimuth Distance (km) Brightness Sun altitude
Rises 19:55:21 0° 336° (NNW) 3,243 8.0 -16.4°
Reaches altitude 10° 19:57:45 10° 339° (NNW) 2,317 7.1 -16.7°
Maximum altitude 20:03:00 68° 62° (ENE) 832 4.0 -17.4°
Enters shadow 20:05:39 30° 138° (SE) 1,373 4.8 -17.8°
